This is the latest recevied weather packets stored in our database for station/object N2PUI. If no packets are shown the sender has not sent any weather packets the latest 1 day(s).
| Time | Temp. | Humidity | Pressure | Rain* | Wind** | Luminosity | Snow |
|---|---|---|---|---|---|---|---|
| 1778004316 | 19.44° C | 74% | 1006 hPa | 0 mm | 0.45 m/s, 196° | 636 W/m² | - |
| 1778004020 | 18.89° C | 75% | 1006.7 hPa | 0 mm | 0.45 m/s, 185° | 532 W/m² | - |
| 1778003709 | 18.89° C | 78% | 1006.6 hPa | 0 mm | 0.45 m/s, 177° | 452 W/m² | - |
| 1778003406 | 18.33° C | 76% | 1006.8 hPa | 1.78 mm | 1.79 m/s, 222° | 414 W/m² | - |
| 1778003103 | 18.33° C | 75% | 1007 hPa | 1.78 mm | 0 m/s | 381 W/m² | - |
| 1778002799 | 18.89° C | 71% | 1007.2 hPa | 0 mm | 0.45 m/s, 174° | 331 W/m² | - |
| 1778002495 | 21.67° C | 64% | 1006.8 hPa | 0 mm | 4.92 m/s, 220° | 35 W/m² | - |
| 1778002193 | 22.78° C | 55% | 1006.6 hPa | 0 mm | 0.45 m/s, 163° | 48 W/m² | - |
| 1778001891 | 23.33° C | 48% | 1006.4 hPa | 0 mm | 1.34 m/s, 269° | 80 W/m² | - |
| 1778001591 | 23.33° C | 48% | 1006.6 hPa | 0 mm | 0.45 m/s, 157° | 50 W/m² | - |
| 1778001287 | 23.33° C | 48% | 1006.6 hPa | 0 mm | 2.68 m/s, 222° | 66 W/m² | - |
| 1778000984 | 23.89° C | 49% | 1006.4 hPa | 0 mm | 0.89 m/s, 180° | 82 W/m² | - |
| 1778000681 | 23.89° C | 46% | 1006.3 hPa | 0 mm | 2.24 m/s, 167° | 148 W/m² | - |
| 1778000376 | 24.44° C | 46% | 1006.3 hPa | 0 mm | 2.68 m/s, 210° | 222 W/m² | - |
| 1778000072 | 24.44° C | 45% | 1005.9 hPa | 0 mm | 1.34 m/s, 262° | 471 W/m² | - |
| 1777999762 | 24.44° C | 45% | 1005.9 hPa | 0 mm | 1.34 m/s, 178° | 350 W/m² | - |
| 1777999459 | 24.44° C | 47% | 1006.1 hPa | 0 mm | 0.89 m/s, 206° | 333 W/m² | - |
| 1777999157 | 24.44° C | 43% | 1006.2 hPa | 0 mm | 0.89 m/s, 184° | 347 W/m² | - |
| 1777998856 | 24.44° C | 43% | 1006.1 hPa | 0 mm | 1.79 m/s, 299° | 577 W/m² | - |
| 1777998554 | 25° C | 45% | 1006.1 hPa | 0 mm | 2.24 m/s, 194° | 425 W/m² | - |
| 1777998250 | 24.44° C | 45% | 1006.3 hPa | 0 mm | 2.24 m/s, 230° | 509 W/m² | - |
| 1777997947 | 23.89° C | 45% | 1006.6 hPa | 0 mm | 3.13 m/s, 235° | 473 W/m² | - |
| 1777997644 | 23.89° C | 46% | 1006.4 hPa | 0 mm | 2.68 m/s, 212° | 530 W/m² | - |
| 1777997341 | 23.89° C | 46% | 1006.4 hPa | 0 mm | 1.34 m/s, 191° | 369 W/m² | - |
| 1777997039 | 23.89° C | 46% | 1006.7 hPa | 0 mm | 2.24 m/s, 321° | 410 W/m² | - |
* Rain latest hour (hover to see other rain measurements)
** Current wind speed in m/s (hover to see current wind gust speed)